Change the Weather History Date:

Thursday, March 27, 2014

  Actual Average Record
Temperature  
Mean Temperature 43 °F 52 °F  
Max Temperature 52 °F 62 °F 86 °F (2007)
Min Temperature 34 °F 43 °F 23 °F (1955)
Degree Days  
Heating Degree Days 22 13  
Month to date heating degree days 543 445  
Since 1 July heating degree days 3154 3014  
Cooling Degree Days 0 0  
Month to date cooling degree days 0 0  
Year to date cooling degree days 0 1  
Moisture  
Dew Point 21 °F    
Average Humidity 47    
Maximum Humidity 65    
Minimum Humidity 29    
Precipitation  
Precipitation 0.00 in 0.12 in 2.03 in (1891)
Month to date precipitation 3.22 3.21  
Year to date precipitation 9.51 9.73  
Snow  
Snow 0.00 in 0.00 in 2.50 in (1947)
Month to date snowfall 2.3 0.2  
Since 1 July snowfall 15.5 5.8  
Snow Depth 0.00 in    
Sea Level Pressure  
Sea Level Pressure 30.40 in    
Wind  
Wind Speed 10 mph (East)    
Max Wind Speed 18 mph    
Max Gust Speed 23 mph    
Visibility 10 miles    
Events      
T = Trace of Precipitation, MM = Missing Value Source: NWS Daily Summary

Daily Weather History Graph

Daily Weather History Graph

Search for Another Location

Airport or City:

Trip Planner

Search our weather history database for the weather conditions in past years. The results will help you decide how hot, cold, wet, or windy it might be!

Date:

Astronomy

Mar. 27, 2014 Rise Set
Actual Time 6:57 AM EDT 7:22 PM EDT
Civil Twilight 6:32 AM EDT 7:48 PM EDT
Nautical Twilight 6:01 AM EDT 8:19 PM EDT
Astronomical Twilight 5:30 AM EDT 8:50 PM EDT
Moon 4:42 AM EDT (3/27) 4:11 PM EDT (3/27)
Length of Visible Light 13h 16m
Length of Day
12h 24m
Waning Crescent, 13% of the Moon is Illuminated
Mar 27
Waning Crescent
Mar 30
New
Apr 7
First Quarter
Apr 15
Full
Apr 22
Last Quarter

Hourly Weather History & Observations

Time (EDT) Temp. Windchill Dew Point Humidity Pressure Visibility Wind Dir Wind Speed Gust Speed Precip Events Conditions
12:51 AM 36.0 °F 29.0 °F 15.1 °F 43% 30.36 in 10.0 mi North 9.2 mph - N/A   Clear
1:51 AM 36.0 °F 29.0 °F 12.9 °F 39% 30.36 in 10.0 mi North 9.2 mph - N/A   Clear
2:51 AM 35.1 °F 27.4 °F 15.1 °F 44% 30.37 in 10.0 mi North 10.4 mph - N/A   Clear
3:51 AM 35.1 °F 26.4 °F 15.1 °F 44% 30.39 in 10.0 mi North 12.7 mph - N/A   Clear
4:51 AM 34.0 °F 25.5 °F 15.1 °F 46% 30.39 in 10.0 mi North 11.5 mph - N/A   Clear
5:51 AM 35.1 °F 26.4 °F 15.1 °F 44% 30.41 in 10.0 mi North 12.7 mph - N/A   Clear
6:51 AM 35.1 °F 27.9 °F 17.1 °F 48% 30.43 in 10.0 mi NNE 9.2 mph - N/A   Clear
7:51 AM 35.1 °F 28.6 °F 18.0 °F 50% 30.47 in 10.0 mi NE 8.1 mph - N/A   Clear
8:51 AM 37.0 °F 31.0 °F 18.0 °F 46% 30.47 in 10.0 mi ENE 8.1 mph - N/A   Clear
9:51 AM 39.0 °F 32.8 °F 19.0 °F 45% 30.49 in 10.0 mi ENE 9.2 mph - N/A   Clear
10:51 AM 39.0 °F 34.8 °F 18.0 °F 43% 30.51 in 10.0 mi East 5.8 mph - N/A   Clear
11:51 AM 42.1 °F 37.1 °F 18.0 °F 38% 30.51 in 10.0 mi NNE 8.1 mph - N/A   Clear
12:51 PM 42.1 °F 37.1 °F 19.0 °F 40% 30.47 in 10.0 mi NE 8.1 mph - N/A   Clear
1:51 PM 46.0 °F 43.1 °F 21.0 °F 37% 30.43 in 10.0 mi Variable 5.8 mph - N/A   Clear
2:51 PM 50.0 °F - 19.9 °F 31% 30.40 in 10.0 mi South 12.7 mph 18.4 mph N/A   Clear
3:51 PM 52.0 °F - 23.0 °F 32% 30.38 in 10.0 mi SSE 13.8 mph 19.6 mph N/A   Clear
4:51 PM 51.1 °F - 25.0 °F 36% 30.37 in 10.0 mi South 15.0 mph 19.6 mph N/A   Clear
5:51 PM 51.1 °F - 26.1 °F 38% 30.36 in 10.0 mi South 12.7 mph - N/A   Clear
6:51 PM 48.9 °F - 27.0 °F 43% 30.36 in 10.0 mi South 10.4 mph 20.7 mph N/A   Clear
7:51 PM 45.0 °F 40.6 °F 28.9 °F 53% 30.35 in 10.0 mi South 8.1 mph - N/A   Clear
8:51 PM 43.0 °F 38.2 °F 30.9 °F 62% 30.35 in 10.0 mi South 8.1 mph - N/A   Clear
9:51 PM 44.1 °F 39.0 °F 30.9 °F 60% 30.33 in 10.0 mi South 9.2 mph - N/A   Clear
10:51 PM 44.1 °F 38.1 °F 32.0 °F 63% 30.33 in 10.0 mi South 11.5 mph - N/A   Clear
11:51 PM 44.1 °F 38.6 °F 33.1 °F 65% 30.33 in 10.0 mi South 10.4 mph - N/A   Clear